This is the latest recevied weather packets stored in our database for station/object 9A7DI-13. If no packets are shown the sender has not sent any weather packets the latest 10 day(s).
| Time | Temp. | Humidity | Pressure | Rain* | Wind** | Luminosity | Snow |
|---|---|---|---|---|---|---|---|
| 1777622836 | 17.22° C | 27% | 1036.4 hPa | - | - | - | - |
| 1777622237 | 17.78° C | 28% | 1036.4 hPa | - | - | - | - |
| 1777621637 | 17.22° C | 28% | 1036.4 hPa | - | - | - | - |
| 1777621038 | 17.22° C | 30% | 1036.4 hPa | - | - | - | - |
| 1777620437 | 16.67° C | 34% | 1036.5 hPa | - | - | - | - |
| 1777619837 | 15.56° C | 38% | 1036.5 hPa | - | - | - | - |
| 1777619237 | 15° C | 41% | 1036.6 hPa | - | - | - | - |
| 1777618637 | 13.89° C | 42% | 1036.5 hPa | - | - | - | - |
| 1777618037 | 13.33° C | 44% | 1036.5 hPa | - | - | - | - |
| 1777617437 | 12.78° C | 45% | 1036.5 hPa | - | - | - | - |
| 1777616837 | 11.67° C | 47% | 1036.5 hPa | - | - | - | - |
| 1777616237 | 11.11° C | 49% | 1036.5 hPa | - | - | - | - |
| 1777615637 | 10° C | 49% | 1036.5 hPa | - | - | - | - |
| 1777615038 | 10° C | 51% | 1036.4 hPa | - | - | - | - |
| 1777614437 | 8.89° C | 54% | 1036.3 hPa | - | - | - | - |
| 1777613837 | 8.33° C | 54% | 1036.2 hPa | - | - | - | - |
| 1777613237 | 7.22° C | 59% | 1036.3 hPa | - | - | - | - |
| 1777612637 | 6.67° C | 61% | 1036.3 hPa | - | - | - | - |
| 1777612037 | 6.11° C | 62% | 1036.3 hPa | - | - | - | - |
| 1777611437 | 5° C | 65% | 1036.2 hPa | - | - | - | - |
| 1777610837 | 3.89° C | 68% | 1036.2 hPa | - | - | - | - |
| 1777610237 | 2.78° C | 71% | 1036.1 hPa | - | - | - | - |
| 1777609637 | 1.67° C | 74% | 1036 hPa | - | - | - | - |
| 1777609037 | 1.11° C | 76% | 1036 hPa | - | - | - | - |
| 1777608437 | 0.56° C | 77% | 1035.8 hPa | - | - | - | - |
* Rain since midnight (hover to see other rain measurements)
** Current wind speed in m/s (hover to see current wind gust speed)